Temp
49 48 46 44 45 44 46 47 49 46 45 49 47 45 49 48 49 50 51 51 51 51 53 52 52 54 54 55 55 55 54 56 46 45 47 45 45 46 46 48 47 50 43
48 45 42 41 41 42 43 42 48 46 44 45 46 46 45 46 47 48 48 49 49 49 49 51 50 53 52 53 54 53 52 52 49 40 43 43 43 44 45 45 46 48 46
45 42 41 40 38 38 38 38 42 42 43 43 43 44 44 43 42 44 47 47 47 40 42 39 42 49 47 49 51 51 50 51 48 43 38 43 42 44 43 44 45 45 45
43 42 38 39 40 38 36 38 38 40 38 36 35 35 35 36 38 38 40 37 35 33 34 35 33 33 34 35 34 34 43 46 45 40 36 34 35 32 39 39 39 42 42
41 39 38 39 39 37 37 38 41 40 39 34 34 34 36 36 39 42 40 34 34 33 32 34 37 38 38 41 42 38 35 39 40 38 34 34 33 33 32 32 34 36 32
39 38 38 37 36 36 37 39 41 42 40 41 41 41 41 45 37 39 42 42 42 40 40 41 40 36 36 34 34 35 40 41 40 40 38 33 28 30 31 34 35 33 32
39 38 36 36 36 37 40 43 43 43 44 43 43 43 43 42 36 37 39 45 44 44 44 43 42 40 39 38 33 32 32 32 33 43 36 35 31 32 36 33 34 37 36
36 36 35 37 39 42 43 43 43 43 43 42 42 44 43 40 35 36 37 44 43 44 44 44 42 41 42 40 41 40 39 39 39 40 40 38 38 38 39 38 40 40 40
34 35 36 38 41 42 42 44 44 44 42 40 40 39 37 34 33 33 37 40 40 38 39 42 43 42 35 37 40 38 36 33 31 31 30 28 27 27 28 37 38 38 35
36 36 37 39 41 43 45 44 44 43 42 40 40 40 38 37 33 34 38 41 37 36 38 39 36 38 33 34 39 38 34 32 31 30 29 27 28 26 26 30 33 34 33
40 37 37 39 40 43 44 45 44 44 42 37 35 37 38 37 35 33 36 39 36 33 34 33 34 32 32 33 36 37 32 31 28 28 28 29 29 28 28 28 27 29 29
43 40 35 38 40 40 42 43 43 41 35 33 32 33 35 35 33 33 34 35 35 34 32 33 32 32 32 31 31 29 28 29 29 28 28 27 27 27 27 27 25 26 26
41 40 38 35 34 36 34 36 41 40 38 36 36 34 35 37 36 33 34 33 33 34 34 33 32 32 31 29 28 27 28 29 28 27 27 26 26 25 25 25 25 24 24
39 38 38 36 33 35 35 36 38 39 39 37 36 35 35 36 36 35 35 34 32 32 31 32 32 30 30 30 27 27 29 29 29 28 27 26 26 26 26 27 26 26 26
38 37 35 36 34 33 35 37 39 40 40 39 38 38 34 34 34 34 33 33 32 31 31 31 29 29 28 28 27 28 28 27 27 28 27 26 26 26 26 26 25 26 25
34 34 33 35 34 34 35 34 33 35 36 36 36 38 37 36 34 34 34 33 32 31 31 29 28 28 29 29 28 27 28 27 29 28 28 27 26 26 26 26 27 26 24
33 33 33 33 34 36 36 36 33 32 34 34 35 35 35 34 34 34 33 31 31 31 32 30 30 30 30 31 31 30 28 29 30 29 28 27 27 26 23 25 25 25 24
34 33 34 34 33 35 36 36 36 33 31 31 33 34 34 33 33 32 31 30 29 31 34 32 31 31 33 33 33 32 31 30 29 28 27 27 26 26 25 25 25 23 24
33 34 34 34 34 35 36 36 35 35 34 32 32 32 33 33 32 32 32 32 30 31 34 34 34 34 33 34 33 32 31 30 28 27 28 27 26 27 26 26 26 16 17
35 35 34 34 34 34 36 35 36 34 33 32 32 32 33 33 31 31 31 31 32 33 34 36 36 35 34 34 32 31 30 30 29 28 28 28 27 27 26 25 24 23 23
36 35 34 35 35 36 35 35 36 34 32 33 33 33 33 34 33 33 33 32 32 33 33 35 35 34 34 33 34 32 31 31 30 30 30 29 27 25 26 25 24 23 22
34 34 34 34 35 34 36 36 36 35 35 35 32 32 32 35 34 34 34 33 32 34 36 34 35 35 34 34 34 31 31 30 30 30 29 29 27 26 25 24 23 21 21
35 35 36 35 35 35 35 36 35 35 36 36 33 31 31 33 33 35 34 33 34 34 35 34 33 34 35 34 34 34 32 31 31 31 29 28 26 25 23 22 21 20 19
35 34 35 34 34 34 34 33 35 36 37 34 33 32 32 34 32 33 33 33 33 32 32 33 33 33 34 32 32 33 34 33 32 31 29 27 26 24 23 22 21 19 18
35 34 34 34 33 33 33 34 34 34 34 33 33 33 33 33 33 33 33 33 32 32 32 32 32 32 32 31 31 31 30 28 28 27 27 25 24 22 21 20 19 18 15
35 35 35 35 34 33 33 33 33 33 33 33 33 33 33 32 33 33 32 32 31 31 31 31 31 30 29 29 27 26 23 22 22 24 25 25 22 20 19 18 15 16 14
MSLP
1005.39 1005.94 1006.83 1007.50 1008.19 1009.03 1009.82 1011.42 1011.16 1012.21 1013.59 1014.55 1015.22 1015.38 1016.78 1018.28 1018.30 1018.13 1018.31 1018.85 1019.34 1020.07 1020.32 1020.79 1021.32 1021.79 1021.92 1022.09 1022.61 1022.72 1022.96 1023.06 1024.29 1026.35 1027.51 1028.39 1028.50 1028.66 1029.17 1029.53 1029.93 1029.68 1030.71
1005.14 1005.90 1006.83 1007.23 1008.38 1009.09 1010.37 1011.52 1012.13 1012.74 1013.30 1014.34 1015.36 1015.86 1017.50 1018.18 1018.42 1018.45 1018.55 1019.08 1019.58 1020.10 1020.65 1021.26 1021.81 1022.16 1022.49 1022.69 1022.76 1022.91 1023.17 1023.70 1024.36 1026.40 1027.59 1028.29 1028.64 1029.04 1029.27 1029.56 1029.88 1029.94 1030.09
1005.02 1005.91 1006.47 1007.13 1008.02 1009.14 1010.38 1011.59 1012.53 1013.62 1014.25 1014.56 1015.18 1016.65 1017.49 1017.74 1018.37 1018.87 1019.16 1019.44 1020.37 1020.87 1021.49 1022.05 1022.59 1022.54 1023.13 1023.15 1023.24 1023.46 1024.14 1024.69 1025.60 1026.50 1027.66 1028.43 1029.23 1029.14 1029.50 1029.79 1029.88 1029.93 1030.58
1004.84 1005.62 1006.20 1006.90 1007.72 1008.67 1009.94 1011.18 1012.62 1013.20 1014.60 1015.65 1015.89 1017.32 1017.57 1018.01 1018.95 1019.22 1019.73 1020.18 1021.41 1021.98 1022.67 1023.06 1023.39 1023.89 1024.36 1024.77 1025.34 1025.20 1024.96 1025.26 1025.88 1027.17 1028.21 1029.20 1029.71 1030.73 1030.05 1029.77 1029.93 1030.24 1030.73
1004.58 1005.43 1006.21 1007.15 1007.77 1008.62 1009.93 1011.41 1012.83 1013.64 1014.83 1015.79 1016.51 1017.29 1017.62 1018.54 1019.12 1019.55 1020.13 1020.95 1021.93 1023.02 1023.62 1023.80 1023.89 1024.43 1024.99 1025.00 1025.11 1025.82 1026.27 1026.27 1026.94 1027.62 1028.32 1029.25 1029.81 1030.17 1030.27 1030.73 1030.54 1030.94 1032.07
1004.72 1005.45 1006.21 1007.00 1007.95 1008.71 1009.91 1011.68 1012.45 1013.43 1014.54 1015.72 1016.17 1016.81 1017.43 1018.07 1019.30 1019.60 1020.06 1021.06 1021.99 1022.75 1022.98 1023.57 1024.48 1025.38 1025.64 1025.98 1026.51 1026.85 1026.09 1026.75 1027.30 1027.45 1028.10 1029.12 1030.21 1030.40 1030.66 1030.36 1030.45 1030.72 1030.73
1004.36 1005.26 1006.51 1007.45 1008.05 1008.87 1009.94 1010.90 1011.78 1012.79 1013.97 1014.82 1015.45 1016.42 1017.30 1018.57 1019.28 1019.91 1020.42 1021.17 1022.06 1022.39 1022.78 1023.33 1024.40 1025.68 1025.72 1026.05 1027.25 1027.80 1027.81 1028.09 1028.15 1027.73 1028.58 1029.25 1029.89 1030.43 1030.19 1030.22 1030.42 1030.29 1030.56
1004.60 1005.17 1006.21 1007.40 1007.99 1008.94 1009.88 1010.74 1011.67 1012.67 1013.43 1014.24 1015.49 1016.33 1017.04 1018.56 1019.77 1020.19 1020.77 1021.44 1021.71 1022.30 1022.90 1023.66 1024.58 1025.23 1025.80 1025.77 1026.36 1027.09 1027.74 1028.15 1028.60 1028.72 1029.02 1029.64 1029.93 1030.12 1030.17 1030.09 1029.95 1030.05 1030.38
1005.10 1005.18 1005.61 1006.75 1007.46 1008.42 1009.44 1010.49 1011.40 1012.23 1013.37 1014.63 1015.69 1016.73 1017.73 1019.01 1020.18 1020.62 1020.82 1021.79 1022.37 1022.93 1023.60 1023.96 1024.60 1025.35 1026.78 1026.27 1026.57 1027.34 1028.26 1029.41 1030.46 1030.46 1031.05 1031.59 1031.71 1031.77 1031.54 1030.30 1029.97 1029.74 1030.12
1004.36 1005.45 1005.64 1006.48 1007.16 1007.98 1009.14 1010.37 1011.61 1012.55 1013.51 1014.88 1015.81 1016.89 1017.58 1018.58 1020.23 1020.71 1021.19 1021.59 1022.55 1023.16 1024.10 1024.64 1025.35 1025.75 1027.30 1027.04 1026.94 1027.54 1028.23 1029.60 1030.43 1030.86 1031.50 1031.89 1031.89 1032.05 1032.01 1031.62 1031.10 1030.49 1030.87
1004.47 1005.31 1006.46 1006.97 1007.32 1007.99 1009.19 1010.37 1011.46 1012.46 1013.68 1014.90 1016.17 1016.84 1017.53 1018.77 1020.17 1021.18 1021.32 1021.61 1022.88 1023.65 1024.22 1025.11 1026.01 1027.16 1027.58 1027.44 1027.42 1027.71 1028.68 1029.84 1030.75 1031.09 1031.40 1031.59 1031.68 1031.89 1031.99 1032.27 1032.50 1032.03 1031.82
1004.76 1005.52 1006.30 1007.17 1007.59 1008.52 1009.47 1010.80 1011.82 1012.96 1014.26 1015.20 1016.32 1017.22 1018.08 1019.38 1020.47 1021.05 1021.66 1021.98 1022.86 1023.39 1024.15 1025.30 1026.35 1027.16 1027.71 1028.07 1028.30 1029.02 1029.79 1030.30 1030.42 1030.88 1031.17 1031.51 1031.76 1032.09 1032.39 1032.58 1033.11 1033.06 1033.23
1004.72 1005.49 1006.46 1007.54 1008.15 1009.12 1009.77 1011.01 1011.93 1012.85 1013.95 1015.08 1016.30 1016.92 1017.94 1018.94 1020.35 1021.36 1021.99 1022.54 1023.04 1023.64 1024.53 1025.38 1026.34 1027.24 1027.87 1028.47 1029.05 1029.69 1029.99 1030.02 1030.32 1030.69 1031.08 1031.55 1032.10 1032.75 1032.89 1032.86 1033.14 1033.32 1033.39
1004.79 1005.52 1006.55 1007.56 1008.62 1009.46 1010.27 1011.08 1011.73 1012.46 1013.43 1014.34 1015.19 1016.12 1017.20 1018.23 1019.46 1020.91 1022.00 1023.09 1023.52 1024.18 1025.04 1025.82 1026.61 1027.42 1027.87 1028.33 1029.44 1029.84 1029.71 1029.95 1030.15 1030.51 1031.09 1031.72 1032.33 1032.43 1032.45 1032.65 1032.49 1032.58 1032.38
1005.17 1006.02 1006.82 1007.72 1008.59 1009.18 1010.44 1011.00 1011.79 1012.42 1012.97 1013.51 1014.59 1015.52 1016.54 1017.73 1018.99 1020.17 1021.20 1022.28 1023.16 1024.07 1025.10 1026.02 1026.85 1027.33 1027.69 1028.26 1028.92 1029.39 1029.75 1030.27 1030.28 1030.64 1031.11 1031.39 1031.75 1032.06 1032.30 1032.63 1032.59 1032.40 1032.05
1005.51 1006.29 1007.05 1007.81 1008.60 1009.41 1010.53 1011.55 1012.33 1012.79 1013.53 1013.91 1014.72 1015.56 1017.01 1017.78 1018.92 1019.95 1021.18 1022.22 1023.07 1024.24 1024.84 1025.39 1026.12 1026.60 1026.83 1027.35 1028.11 1028.83 1029.30 1029.72 1029.88 1030.42 1030.68 1030.96 1031.29 1031.60 1031.87 1032.24 1032.36 1032.22 1031.92
1005.69 1006.38 1007.20 1007.92 1008.45 1009.17 1010.07 1011.13 1012.18 1013.83 1014.33 1014.82 1015.32 1016.12 1016.83 1017.84 1019.05 1020.10 1021.23 1022.27 1023.36 1024.09 1024.10 1024.69 1025.17 1025.65 1026.05 1026.53 1027.16 1027.88 1028.42 1029.03 1029.44 1029.97 1030.27 1030.63 1030.96 1031.28 1031.96 1031.76 1031.96 1032.00 1031.77
1005.76 1006.46 1007.10 1007.63 1008.15 1009.26 1010.03 1010.88 1011.51 1012.73 1014.10 1015.30 1016.04 1016.61 1017.17 1018.19 1019.24 1020.21 1021.20 1022.34 1023.38 1023.61 1023.30 1023.81 1024.32 1024.89 1025.27 1025.70 1026.36 1026.90 1027.61 1028.34 1028.99 1029.51 1029.92 1030.23 1030.65 1030.86 1031.06 1031.21 1031.32 1031.55 1031.52
1005.63 1006.41 1007.18 1007.93 1008.59 1009.23 1010.09 1010.77 1011.49 1012.70 1013.93 1014.99 1016.04 1016.92 1017.60 1018.44 1019.29 1020.08 1020.95 1021.42 1022.09 1022.57 1022.68 1023.06 1023.56 1024.08 1024.61 1025.09 1025.76 1026.40 1027.03 1027.57 1028.35 1028.88 1029.25 1029.65 1030.07 1030.26 1030.36 1030.59 1030.86 1031.85 1032.04
1005.72 1006.42 1007.20 1008.03 1008.73 1009.36 1009.96 1010.57 1011.39 1012.58 1013.63 1014.53 1015.38 1016.15 1017.25 1018.14 1018.78 1019.48 1020.39 1020.97 1021.44 1021.82 1022.21 1022.41 1022.84 1023.45 1023.93 1024.49 1025.25 1025.92 1026.47 1026.97 1027.58 1028.12 1028.43 1028.81 1029.24 1029.64 1029.78 1030.12 1030.52 1030.76 1030.87
1005.66 1006.66 1007.35 1008.08 1008.60 1009.26 1009.92 1010.61 1011.43 1012.41 1013.34 1014.12 1014.82 1015.71 1016.42 1016.98 1017.86 1018.66 1019.46 1020.22 1020.72 1021.11 1021.53 1021.86 1022.24 1022.82 1023.43 1024.01 1024.47 1025.02 1025.54 1026.05 1026.55 1027.03 1027.45 1027.92 1028.50 1028.99 1029.32 1029.58 1030.04 1030.43 1030.73
1005.85 1006.62 1007.39 1007.99 1008.67 1009.38 1009.95 1010.62 1011.28 1012.07 1012.85 1013.60 1014.66 1015.72 1016.53 1016.76 1017.35 1017.96 1018.68 1019.42 1020.11 1020.49 1020.81 1021.48 1021.74 1022.25 1022.80 1023.23 1023.73 1024.33 1024.83 1025.27 1025.74 1026.26 1026.72 1027.24 1027.84 1028.41 1028.84 1029.22 1029.63 1030.04 1030.36
1005.97 1006.57 1007.28 1007.96 1008.60 1009.26 1009.84 1010.36 1010.97 1011.59 1012.30 1013.22 1014.35 1015.34 1016.18 1016.42 1016.99 1017.47 1018.13 1018.85 1019.56 1020.10 1020.47 1020.97 1021.53 1021.82 1022.31 1022.86 1023.26 1023.66 1024.19 1024.57 1024.98 1025.52 1026.05 1026.60 1027.24 1027.81 1028.36 1028.75 1029.24 1029.73 1030.01
1006.03 1006.54 1007.07 1007.77 1008.44 1009.06 1009.64 1010.24 1010.85 1011.42 1012.08 1012.96 1013.88 1014.75 1015.44 1015.91 1016.69 1017.22 1017.77 1018.48 1019.15 1019.74 1020.25 1020.67 1021.12 1021.52 1021.94 1022.61 1023.12 1023.49 1023.73 1024.16 1024.73 1025.18 1025.74 1026.09 1026.71 1027.44 1027.97 1028.54 1028.96 1029.47 1029.98
1006.17 1006.66 1007.18 1007.71 1008.29 1008.83 1009.54 1010.12 1010.71 1011.22 1011.91 1012.72 1013.49 1014.21 1014.92 1015.58 1016.27 1016.85 1017.44 1018.04 1018.69 1019.25 1019.80 1020.43 1020.85 1021.24 1021.77 1022.32 1022.75 1023.26 1023.76 1024.44 1024.89 1025.33 1025.81 1026.24 1026.64 1027.39 1027.96 1028.49 1028.96 1029.48 1030.31
1006.21 1006.62 1007.09 1007.60 1008.15 1008.69 1009.30 1009.92 1010.51 1011.14 1011.77 1012.42 1013.11 1013.79 1014.48 1015.21 1015.79 1016.43 1017.06 1017.67 1018.28 1018.87 1019.42 1020.03 1020.52 1021.05 1021.71 1022.41 1023.02 1023.63 1024.33 1024.84 1025.27 1025.53 1025.88 1026.23 1026.90 1027.48 1028.10 1028.62 1029.35 1029.58 1030.18
Wind_Speed
13 13 13 11 11 12 12 9 14 15 14 14 13 13 14 12 11 11 11 12 12 10 10 10 9 9 7 7 6 5 4 3 9 7 7 6 6 7 7 5 5 2 9
14 15 15 14 13 13 9 13 13 16 14 15 13 13 13 11 11 12 13 12 12 12 11 10 10 7 9 8 6 7 6 6 9 12 8 6 6 6 5 5 4 3 6
13 14 15 15 17 16 16 13 13 9 11 11 14 13 13 10 10 8 11 12 11 7 8 7 5 9 7 7 7 8 7 7 8 8 7 6 6 3 6 4 3 4 5
12 13 14 16 17 15 15 15 13 14 11 7 9 8 8 8 9 9 9 10 10 8 7 7 7 9 8 7 6 7 5 8 9 8 7 5 4 1 3 1 4 2 1
11 11 11 11 13 17 16 15 15 15 14 11 12 10 12 11 9 12 12 11 11 10 7 7 9 10 9 8 7 8 7 7 7 7 7 6 5 5 3 2 0 3 2
11 10 11 12 13 16 16 18 16 16 16 16 15 15 13 9 13 12 13 11 11 11 11 11 12 14 14 16 16 13 9 8 8 6 6 6 4 5 4 2 1 4 4
14 14 13 12 15 16 18 18 17 18 18 16 15 15 14 12 16 15 12 11 10 10 11 12 10 9 13 15 17 17 16 16 8 6 8 6 7 4 3 5 3 4 2
11 15 16 14 17 18 18 18 18 17 17 14 14 14 13 11 18 19 12 12 11 12 11 11 12 13 11 14 13 13 12 10 7 6 8 7 6 4 1 3 1 1 3
9 12 15 15 16 18 18 19 18 17 15 14 14 14 14 14 19 18 14 12 11 10 8 10 11 11 11 11 12 12 12 11 12 18 16 13 11 10 7 4 1 3 2
12 10 13 14 16 17 19 18 15 15 15 13 14 14 15 16 20 19 15 11 14 10 10 10 6 13 14 7 9 11 12 10 9 9 8 8 6 7 9 7 4 2 1
11 13 12 13 15 15 17 16 16 15 15 13 12 11 13 15 18 21 15 11 10 9 9 9 7 18 14 7 4 6 10 10 9 7 5 4 4 4 4 5 5 5 3
13 14 13 12 11 13 17 15 15 15 14 13 12 10 10 12 18 19 17 13 14 9 9 8 9 18 14 11 6 14 16 10 6 5 4 4 4 3 3 4 4 4 4
13 14 14 14 11 14 15 14 13 15 13 13 12 11 11 11 12 20 17 17 13 9 8 11 19 18 15 9 15 17 12 6 6 5 4 4 4 3 2 3 3 2 2
12 13 14 14 14 13 11 11 10 11 11 11 11 11 10 11 12 12 11 11 13 10 13 12 12 12 10 11 11 9 6 5 5 5 5 5 4 3 3 1 0 1 2
11 11 12 12 13 13 10 11 11 11 11 12 11 11 12 12 12 15 14 11 9 11 13 11 10 9 9 9 8 7 6 6 6 5 5 5 4 4 3 2 0 1 3
10 10 10 11 11 10 10 7 6 8 9 10 14 12 9 11 22 23 21 20 20 22 11 11 10 10 9 9 9 8 7 8 7 6 5 5 5 4 4 3 2 2 3
11 11 10 10 10 11 11 12 12 9 9 12 15 16 17 19 23 23 23 23 25 20 10 10 10 10 9 9 9 9 9 8 7 7 6 5 5 4 4 3 2 2 3
10 13 9 9 9 10 10 10 10 12 11 10 11 14 17 23 24 25 24 22 14 13 10 10 9 9 9 9 9 9 9 9 8 7 7 6 6 5 5 4 4 3 4
11 9 9 8 9 10 9 11 11 12 11 10 10 11 15 21 22 23 25 11 12 12 10 9 9 9 9 9 8 8 9 9 9 8 8 7 7 7 6 5 3 1 3
11 14 11 9 9 10 10 10 10 10 10 10 10 11 11 14 12 13 13 10 9 10 10 10 9 9 9 9 9 9 9 9 9 9 9 9 8 7 6 6 5 5 5
10 10 12 9 10 9 9 10 11 10 11 11 10 10 16 12 12 12 12 10 9 9 9 9 9 9 9 9 10 10 10 9 10 10 9 9 8 8 8 6 6 5 5
9 10 9 9 9 9 9 10 11 11 11 11 10 12 19 10 11 11 10 10 8 8 8 8 8 9 9 9 10 8 9 9 9 9 9 8 8 8 7 7 6 5 5
9 10 9 9 9 10 10 11 10 10 11 11 11 10 11 8 9 10 9 8 9 8 7 7 7 8 8 7 7 8 8 9 8 8 9 9 8 8 8 8 7 6 5
9 9 9 9 8 9 8 9 9 11 11 10 10 10 11 9 9 9 8 8 8 8 7 7 8 9 8 7 7 7 7 5 5 6 8 8 8 8 7 7 5 5 4
7 8 8 9 9 8 9 10 9 9 9 10 9 10 11 9 9 9 8 8 8 8 8 8 7 8 9 12 10 10 6 7 7 6 6 6 8 9 7 5 5 5 5
8 9 8 8 8 8 9 9 9 9 9 9 9 9 9 10 9 9 8 9 8 8 9 8 8 10 11 9 9 9 10 10 9 10 8 7 7 7 6 6 7 5 6
Wind_Direction
192 178 173 160 157 152 162 167 159 142 149 152 143 137 149 170 163 154 147 145 144 145 141 143 141 152 151 150 156 153 132 132 126 119 130 131 131 129 140 132 154 90 100
182 169 165 146 142 147 147 138 152 149 142 145 143 150 158 167 160 150 143 144 143 144 138 141 147 148 147 148 144 131 122 126 131 141 141 140 126 126 128 137 117 73 92
179 174 164 155 151 151 144 138 133 135 145 143 148 159 166 153 135 151 142 139 138 102 111 94 130 145 132 128 132 131 119 115 125 136 134 138 134 137 154 163 145 124 99
177 173 166 164 163 148 138 144 146 147 146 134 121 125 118 112 135 124 118 100 116 101 103 116 105 113 107 95 71 49 104 118 120 129 133 130 124 74 90 173 138 46 30
152 153 153 149 143 137 139 143 153 148 148 138 130 130 131 132 142 142 132 119 128 125 119 120 121 121 120 110 133 123 120 122 130 134 131 140 137 144 125 104 137 179 162
139 134 138 138 144 140 139 154 152 151 151 159 152 146 145 144 140 130 137 140 147 146 140 126 120 119 110 91 74 58 72 136 142 137 142 117 120 136 124 112 159 221 211
147 143 141 150 147 146 151 153 152 154 157 154 148 150 147 136 141 134 138 144 150 144 140 137 138 123 130 116 103 95 73 54 36 120 125 125 133 130 151 174 164 223 256
147 149 142 154 149 148 152 153 152 154 151 145 150 151 140 130 152 147 157 146 140 143 143 144 143 152 137 137 128 120 115 105 93 98 105 99 97 105 61 6 339 242 177
157 152 148 151 151 149 157 158 154 150 144 144 144 144 141 144 152 156 148 143 134 133 136 150 152 140 136 134 135 127 115 107 82 79 87 88 74 53 18 280 93 265 196
162 160 147 159 152 156 157 156 155 151 147 150 149 158 148 146 159 159 154 150 151 147 145 133 115 134 156 177 144 143 136 136 128 123 116 102 82 73 46 33 354 346 357
152 142 156 157 152 149 153 155 156 151 146 143 143 144 147 147 159 171 173 148 145 149 149 147 147 146 155 152 146 138 132 135 124 126 129 121 105 89 71 60 36 10 351
164 155 142 148 141 142 147 149 150 147 139 137 132 134 143 149 159 165 167 143 156 151 146 150 152 158 153 143 121 119 132 142 142 140 134 118 105 83 80 63 58 45 43
156 160 150 140 145 142 137 149 154 150 152 153 160 152 154 160 158 168 162 150 147 141 141 145 151 154 143 141 135 139 149 150 147 151 141 122 94 86 132 157 150 128 144
156 154 152 147 146 147 143 152 153 158 163 161 158 158 155 161 160 164 162 155 141 131 135 140 141 142 155 133 138 154 153 155 156 145 138 124 129 161 132 112 150 342 270
154 149 149 148 148 143 150 159 169 167 170 161 165 163 158 170 168 163 157 157 155 143 141 142 151 158 156 157 157 164 151 156 159 149 154 153 149 162 144 164 154 269 281
146 145 150 150 148 144 146 128 104 135 135 126 143 158 157 148 145 155 159 160 154 155 154 162 169 173 173 168 169 173 174 180 170 172 169 165 167 174 168 171 209 280 304
151 151 148 150 151 155 154 156 148 137 141 139 149 150 156 154 155 158 161 159 164 163 172 176 179 180 180 181 180 182 184 185 173 183 183 178 179 175 183 191 209 255 276
148 148 149 150 148 153 155 156 149 151 156 157 152 155 151 156 161 163 159 155 165 193 188 187 188 186 191 187 188 187 184 179 185 194 191 187 189 198 199 212 218 256 285
149 149 146 146 148 145 147 145 143 151 157 152 154 162 159 164 167 166 163 171 176 190 199 197 195 193 195 192 189 190 189 187 191 196 197 198 198 213 213 222 222 238 303
149 145 144 147 143 145 150 148 150 152 151 152 160 165 167 164 171 170 175 180 184 192 197 200 197 196 197 192 184 189 192 196 194 202 206 206 208 215 224 219 228 248 240
139 136 142 143 147 149 147 153 159 151 155 163 160 158 167 168 169 177 179 183 183 191 193 200 197 195 192 192 192 191 202 200 207 207 216 214 209 216 222 221 225 223 256
140 142 145 149 145 152 157 159 161 159 161 159 151 162 168 173 177 178 181 179 182 199 185 194 194 190 194 194 195 192 202 211 212 215 217 217 213 215 220 218 217 227 245
143 147 149 150 153 155 162 163 164 162 162 160 155 159 173 174 179 183 185 177 182 190 185 180 188 189 189 192 197 200 209 212 216 211 214 213 209 210 210 211 208 226 241
144 147 150 151 152 158 159 159 160 166 163 154 158 162 175 170 179 182 179 170 176 178 180 183 191 191 187 184 195 202 215 210 197 203 213 211 202 195 195 205 207 215 232
145 150 153 157 160 159 154 165 163 160 160 157 163 167 173 174 174 179 175 168 172 174 175 179 191 190 192 192 191 197 166 170 178 176 182 190 184 175 193 196 205 197 207
159 163 160 161 158 155 159 158 157 159 161 161 166 167 168 179 181 181 171 169 172 173 172 180 178 177 174 178 170 157 153 150 148 160 161 165 166 179 176 194 184 203 188